Temperature
8 7 6 7 7 8 8 8 8 8 8 8 8 7 8 9 9 9 9 10 11 11 11 11 11 11 11 11 11 11 11 11 11 11 11 11 11 11 11 11 11 11 11 11
7 7 7 8 8 8 8 8 8 8 8 8 7 7 8 8 8 9 9 10 10 11 11 11 11 11 11 11 11 11 11 11 11 11 11 11 11 11 11 10 10 10 10 10
8 8 8 8 8 8 7 8 8 8 7 7 7 8 8 8 8 9 9 10 10 11 11 11 11 11 11 11 11 11 11 11 10 10 10 10 10 10 10 10 10 10 10 10
7 7 8 8 8 8 8 8 8 7 7 6 7 7 7 7 7 8 9 9 10 11 11 11 11 11 11 11 11 10 10 10 10 10 10 10 10 10 10 10 10 9 9 9
7 7 7 8 8 8 7 7 7 7 6 6 6 6 6 6 8 8 8 9 10 11 11 11 11 11 11 11 10 10 10 10 10 10 10 10 9 9 9 9 9 9 9 9
7 7 7 7 7 7 7 7 6 5 5 6 6 6 6 6 7 8 8 9 10 10 11 11 11 11 11 10 10 10 10 10 10 9 9 9 9 9 9 9 9 9 9 9
7 7 7 7 7 7 7 6 6 6 5 6 6 5 6 7 7 7 7 9 10 10 10 11 11 11 11 10 10 10 10 10 9 9 9 9 9 9 9 8 8 8 8 8
7 7 7 7 7 7 6 7 6 7 6 5 5 5 6 7 7 8 8 9 9 10 10 10 10 10 10 10 10 10 10 9 9 9 9 8 8 8 8 8 8 8 8 8
6 7 7 7 7 7 6 5 6 5 5 5 5 5 6 7 7 7 7 8 9 10 10 10 10 10 10 10 9 9 9 9 9 8 8 8 8 8 8 7 7 7 7 8
6 6 6 6 7 6 6 5 4 5 6 6 6 5 6 7 7 6 6 7 9 9 9 9 9 9 9 9 9 9 9 8 8 8 8 8 8 7 7 7 7 7 7 7
6 5 6 6 6 6 6 5 5 4 4 5 5 7 6 6 7 6 6 8 9 9 9 9 9 9 9 9 8 8 8 8 8 8 8 7 7 7 7 7 7 7 7 7
5 4 4 5 5 5 5 5 4 5 5 3 3 5 7 6 6 6 7 8 9 9 9 9 9 9 8 8 8 8 8 8 8 7 7 7 7 7 7 6 6 6 6 6
5 4 5 6 5 5 5 5 4 4 4 2 3 6 6 5 6 7 7 8 9 9 9 9 8 8 8 8 8 8 8 8 7 7 7 7 7 7 6 6 6 6 6 6
5 4 4 6 6 5 5 5 4 4 3 3 3 5 6 6 6 6 7 8 8 8 8 8 8 8 8 8 8 7 7 7 7 7 7 7 6 6 6 6 6 6 6 5
4 4 3 3 4 4 4 4 4 3 4 4 4 4 6 5 5 7 7 8 8 8 8 8 8 7 7 7 7 7 7 7 6 6 6 6 6 6 6 6 6 5 5 5
3 3 3 3 3 3 3 3 4 4 4 4 4 5 5 6 6 6 7 7 7 7 7 7 7 7 7 7 7 7 7 6 6 6 6 6 6 5 5 5 5 5 5 5
2 3 3 3 3 3 3 4 4 3 3 3 4 5 5 4 4 6 6 7 7 7 7 7 7 7 7 7 6 6 6 6 6 6 5 5 5 5 5 5 5 5 4 4
2 2 2 2 2 3 5 5 4 3 3 3 4 4 4 4 6 6 7 7 6 6 6 6 6 6 6 6 6 6 6 5 5 5 5 5 5 5 5 4 4 4 4 4
2 3 2 2 2 3 4 4 3 3 4 3 3 4 4 5 5 5 7 6 6 6 6 6 6 6 6 6 5 5 5 5 5 5 5 5 4 4 4 4 4 4 4 4
1 2 2 2 2 3 5 5 4 4 4 4 3 3 4 4 3 4 6 6 6 6 6 6 5 5 5 5 5 5 4 4 4 4 4 4 4 4 4 4 4 3 3 3
1 1 2 2 2 3 3 4 4 4 5 5 5 5 4 3 4 5 5 6 6 5 5 5 5 5 5 4 4 4 4 4 4 4 4 4 4 4 3 3 3 3 3 3
1 1 1 2 2 3 4 3 3 4 5 5 5 5 5 5 5 5 5 5 5 5 5 4 4 4 4 4 4 4 4 4 3 3 3 3 3 3 3 3 3 3 3 2
1 2 2 2 3 4 4 4 5 5 5 5 5 5 4 4 4 4 4 4 4 4 4 4 4 4 4 3 3 3 3 3 3 3 3 3 3 3 3 2 2 2 2 2
-0 0 1 1 1 3 4 4 5 5 4 4 4 4 4 4 4 4 3 3 4 4 3 3 3 3 3 3 3 3 3 2 2 2 2 2 2 2 2 2 2 2 2 2
1 -0 -0 0 1 2 3 4 4 4 4 4 3 3 3 3 3 3 3 3 3 3 3 3 3 2 3 2 2 2 2 2 2 2 2 2 2 2 2 2 2 1 1 1
0 0 0 1 2 2 3 4 4 4 3 3 3 3 3 3 2 2 2 2 2 2 2 2 2 2 2 2 2 2 2 1 1 1 1 1 1 1 1 1 1 1 1 1
Wind_Speed
5 5 3 2 1 2 3 2 2 4 4 3 4 7 9 6 3 4 5 4 4 4 2 0 1 2 2 2 1 1 2 2 2 1 1 1 1 1 2 2 3 3 3 3
6 3 3 1 1 3 2 1 2 4 4 2 4 7 7 4 4 5 5 5 5 3 2 1 0 1 1 1 1 1 1 1 1 1 0 1 0 0 1 2 3 3 3 3
3 2 2 2 3 3 2 1 1 3 5 4 5 7 5 3 2 2 3 4 4 5 4 3 2 1 1 1 2 1 1 1 1 1 1 2 2 1 2 2 2 3 3 3
2 3 2 3 3 2 1 2 1 2 4 4 4 4 7 4 5 4 4 3 4 4 4 4 3 2 3 3 2 1 1 1 1 2 2 2 1 0 1 1 2 3 3 3
2 3 3 2 2 1 1 2 2 2 2 3 2 1 8 4 4 5 5 4 4 4 4 4 4 3 3 2 2 2 1 1 1 1 2 1 1 1 1 1 2 3 3 3
1 1 0 1 1 1 1 3 4 5 4 2 2 2 7 4 5 5 4 4 4 3 3 3 3 2 2 1 1 1 1 1 1 1 1 2 2 2 1 2 2 2 2 2
4 3 2 1 2 4 4 5 5 5 4 5 2 2 9 7 6 6 6 5 4 2 2 3 2 2 2 2 2 2 2 2 1 1 2 2 3 3 3 3 3 2 2 2
1 4 2 1 1 1 1 4 4 2 4 5 3 6 8 6 6 5 4 3 2 1 1 2 3 3 3 3 2 2 3 3 2 2 3 2 3 2 3 3 3 3 3 3
3 4 2 1 1 3 3 2 3 4 1 4 6 7 9 3 3 2 1 1 1 2 2 2 2 2 3 3 3 3 3 3 3 3 3 3 3 3 4 4 3 3 4 3
4 3 3 3 1 2 2 6 5 3 1 4 7 6 5 5 4 3 2 2 3 2 2 2 2 2 3 3 2 2 3 3 3 3 3 3 3 4 4 3 4 4 4 3
2 2 3 2 3 5 3 3 3 3 3 3 5 7 5 6 4 5 5 5 4 4 4 3 3 3 2 2 1 2 2 3 3 3 3 3 3 3 3 4 4 4 4 4
3 3 3 6 3 2 4 6 6 4 4 4 4 8 5 5 5 5 5 5 5 5 4 4 3 2 2 2 3 3 3 3 4 3 3 4 4 3 3 4 5 4 4 4
4 3 2 4 2 1 3 4 5 4 3 5 5 8 3 2 3 4 5 6 6 5 5 4 3 3 4 4 4 4 4 4 4 3 3 4 4 4 4 5 5 4 4 4
3 4 6 7 4 3 5 5 6 6 5 6 10 11 9 7 7 7 7 7 6 6 5 4 4 5 5 5 5 5 5 4 4 3 3 4 5 5 5 5 5 5 4 4
4 4 6 9 7 6 8 10 10 12 11 11 10 12 15 10 9 8 7 7 6 6 6 5 5 5 5 5 5 5 5 4 3 4 4 6 5 5 5 5 5 5 5 5
3 4 3 6 5 7 11 14 15 16 13 15 15 18 14 9 7 8 8 8 7 7 7 6 6 5 5 6 6 5 5 5 4 5 6 5 5 5 5 5 5 5 5 5
4 4 2 5 4 6 11 13 14 9 9 10 16 15 7 6 8 9 8 7 7 7 7 6 6 6 7 6 6 6 6 4 4 5 6 5 5 5 6 5 5 5 5 5
7 5 3 3 2 9 9 2 7 9 10 11 10 8 7 8 8 7 6 6 7 6 6 6 6 6 6 5 5 5 4 4 5 6 6 6 5 6 5 5 6 6 5 5
8 7 4 3 5 10 9 4 5 6 7 7 9 10 9 6 4 6 6 6 7 6 6 6 6 6 5 6 5 4 4 5 5 6 7 6 6 6 6 6 7 6 5 6
3 5 5 5 5 8 6 1 2 2 6 3 4 7 5 1 2 6 5 4 5 6 5 5 5 4 5 5 3 4 5 6 7 8 7 6 6 6 7 7 7 5 5 6
4 5 9 10 9 9 7 3 3 3 6 2 3 4 4 5 6 6 5 5 5 6 6 5 5 5 6 5 4 5 6 8 8 6 6 6 6 7 7 7 6 5 5 5
9 7 8 7 9 11 4 5 6 7 4 3 4 4 5 6 7 6 6 7 7 7 6 6 5 7 6 5 4 6 8 8 6 5 6 6 6 6 6 6 6 5 5 6
9 10 7 10 9 4 4 6 5 3 4 5 4 5 5 6 7 8 7 8 8 8 7 6 6 7 7 5 6 8 8 6 5 5 6 6 6 6 5 6 6 5 5 5
6 4 5 7 10 9 8 7 6 5 6 6 5 6 5 7 9 9 8 8 8 8 7 6 6 7 8 6 7 8 7 5 5 6 6 6 6 6 5 5 5 5 5 6
7 5 6 9 9 8 7 7 7 7 7 7 7 7 8 8 9 9 8 8 8 7 6 6 6 8 9 7 7 7 6 5 6 6 6 6 6 6 6 6 6 7 7 8
7 9 9 10 8 7 8 7 7 8 9 9 9 9 8 7 9 9 8 7 7 7 7 7 8 8 8 7 8 7 6 6 6 6 6 5 5 5 5 5 6 9 11 13
Wind_Direction
19 55 37 292 254 170 150 138 294 292 323 337 284 283 286 290 263 250 252 250 249 253 269 286 98 92 84 75 90 85 73 53 66 71 92 71 6 12 22 22 23 19 17 20
41 24 306 295 63 86 87 74 319 318 347 349 312 294 283 270 244 236 236 239 236 244 269 257 187 112 123 136 120 112 118 81 70 79 150 160 151 317 333 1 14 19 16 16
105 279 318 67 54 58 33 117 316 318 339 14 350 320 310 305 304 284 252 236 224 216 219 223 218 219 214 226 215 208 194 148 99 91 78 55 45 20 12 7 358 1 7 13
41 337 26 55 40 60 321 303 323 2 25 335 25 312 297 308 317 299 287 273 247 229 213 214 212 222 235 235 218 216 209 170 125 109 103 103 105 296 291 315 328 340 355 2
351 4 37 39 328 67 226 340 44 47 73 349 2 204 290 320 296 283 276 268 256 235 217 219 221 224 232 226 206 207 202 195 131 126 142 142 187 246 291 322 329 336 341 344
310 332 81 233 328 79 97 44 51 49 62 326 269 190 284 265 249 278 281 272 263 246 233 238 241 230 241 229 204 198 186 212 187 163 164 184 214 235 276 301 306 315 321 318
352 349 354 35 44 24 58 68 20 360 2 266 282 224 256 261 255 252 261 268 274 266 241 246 243 237 245 247 238 217 210 232 226 211 218 221 226 226 238 256 264 278 290 287
16 304 317 3 144 158 89 121 147 218 262 291 302 246 258 270 284 279 262 257 292 298 263 247 244 238 244 248 245 227 228 238 230 227 241 238 232 230 242 247 248 252 255 260
180 259 322 330 274 136 120 126 149 136 223 282 280 287 300 284 314 334 347 6 311 294 287 265 258 246 248 251 241 226 226 240 240 235 240 247 239 235 247 255 253 254 255 262
165 251 291 312 66 32 131 144 107 124 199 279 292 280 260 279 280 296 296 291 290 304 303 290 281 267 256 248 244 234 226 236 246 249 245 249 245 242 244 245 253 258 262 261
142 188 301 340 201 194 140 139 134 136 173 196 277 275 231 234 248 255 266 271 270 272 271 272 276 275 266 270 256 245 247 249 257 256 251 257 260 256 254 253 257 257 259 256
149 140 260 255 247 200 190 188 160 175 223 198 225 270 276 245 254 247 262 276 275 268 267 269 272 279 279 277 273 260 254 255 257 253 249 253 259 261 259 261 263 260 258 255
149 139 323 331 344 196 226 205 184 161 158 190 214 262 297 315 278 265 267 280 282 282 278 280 282 271 266 265 265 262 256 256 261 257 257 261 263 261 260 261 263 260 256 258
136 177 201 223 239 198 230 221 190 174 203 227 229 252 278 284 283 284 281 277 277 275 271 271 273 269 265 263 261 262 263 255 256 256 259 263 262 259 259 260 260 256 250 250
136 229 241 256 262 253 247 241 219 218 219 226 243 246 260 257 259 266 269 271 272 272 276 272 269 267 269 270 269 264 264 257 244 245 251 255 259 258 258 259 259 259 254 251
163 222 261 280 260 255 263 249 235 234 233 240 257 267 263 261 258 260 261 261 260 263 269 271 271 271 270 269 268 265 261 257 241 241 249 256 259 260 258 258 258 258 257 255
189 183 220 274 298 315 268 238 219 217 215 210 237 251 265 265 265 260 256 250 247 255 261 266 266 262 261 259 255 255 256 255 246 248 254 255 255 260 261 260 257 254 252 249
181 179 207 267 330 251 251 215 196 218 240 223 236 256 258 254 266 265 246 235 247 253 258 264 264 266 266 260 258 257 256 249 248 252 255 254 251 257 259 256 255 254 251 247
193 186 203 217 251 273 287 259 188 206 262 227 233 259 271 280 304 290 250 231 239 248 254 257 257 259 261 263 259 260 260 255 252 253 253 251 247 253 255 254 254 252 250 252
167 188 201 210 235 251 255 262 186 140 271 251 225 254 263 192 287 281 275 261 264 268 266 265 269 268 266 263 252 251 259 257 255 253 253 252 247 248 252 254 254 249 244 249
154 192 216 227 241 260 250 218 122 211 255 291 257 253 224 213 232 264 284 280 271 272 274 273 269 264 262 259 246 251 257 256 256 256 257 256 250 249 252 255 252 250 249 253
183 188 204 206 228 251 216 148 191 231 265 277 278 268 246 250 268 279 285 283 282 282 280 272 266 266 265 253 243 254 258 259 259 256 259 259 257 256 256 253 258 252 246 252
205 200 200 206 224 254 205 218 243 253 267 269 260 263 260 267 274 280 283 281 281 276 274 268 262 270 271 254 237 249 261 263 259 258 261 264 264 258 251 247 252 255 244 246
242 217 213 247 258 263 265 264 266 252 246 255 262 270 266 265 270 274 278 279 279 278 274 272 269 270 273 263 249 247 258 256 248 255 262 265 264 266 258 247 241 242 242 245
225 197 227 254 270 286 268 255 256 262 267 275 274 266 261 264 269 270 274 277 279 280 278 271 265 267 271 273 268 263 257 245 247 255 260 262 258 259 259 254 244 242 239 234
210 212 224 250 249 249 267 264 260 257 260 264 269 274 268 255 262 268 271 274 276 278 280 278 274 271 274 272 271 269 253 238 241 255 257 256 257 258 256 262 273 255 247 254
Height
1501 1506 1510 1509 1508 1507 1508 1510 1510 1507 1503 1502 1501 1499 1494 1491 1492 1491 1491 1492 1492 1493 1495 1496 1497 1498 1499 1500 1501 1501 1501 1501 1501 1502 1503 1503 1503 1504 1504 1504 1504 1504 1504 1504
1507 1510 1508 1507 1506 1506 1508 1510 1510 1507 1504 1504 1503 1499 1493 1490 1490 1489 1489 1489 1490 1491 1493 1495 1496 1497 1498 1499 1499 1500 1500 1500 1500 1501 1501 1501 1502 1502 1502 1501 1502 1502 1502 1501
1509 1510 1507 1507 1508 1509 1510 1511 1510 1510 1507 1505 1505 1499 1493 1489 1489 1488 1488 1488 1488 1490 1491 1493 1495 1496 1497 1498 1499 1499 1500 1500 1500 1500 1500 1500 1500 1500 1500 1499 1499 1499 1499 1499
1511 1509 1508 1508 1509 1509 1511 1509 1509 1509 1512 1515 1512 1513 1497 1492 1490 1487 1486 1486 1487 1488 1490 1492 1494 1495 1496 1497 1498 1498 1499 1499 1499 1499 1499 1498 1498 1498 1498 1498 1497 1497 1497 1497
1512 1510 1510 1510 1510 1509 1510 1509 1510 1511 1513 1517 1515 1516 1503 1495 1491 1487 1485 1485 1486 1487 1489 1491 1492 1493 1495 1496 1496 1497 1497 1497 1497 1497 1497 1497 1496 1496 1496 1496 1495 1495 1494 1494
1511 1510 1510 1510 1509 1509 1510 1511 1512 1517 1519 1519 1515 1518 1507 1497 1490 1487 1484 1484 1485 1486 1488 1489 1491 1492 1493 1494 1495 1495 1495 1495 1495 1495 1495 1494 1494 1494 1493 1493 1492 1492 1492 1492
1513 1511 1510 1510 1510 1511 1512 1517 1524 1523 1528 1521 1517 1517 1506 1490 1487 1485 1484 1483 1484 1485 1486 1487 1489 1490 1491 1492 1492 1492 1493 1493 1493 1493 1493 1492 1492 1491 1491 1490 1490 1489 1489 1489
1516 1517 1512 1511 1511 1513 1514 1516 1525 1525 1526 1524 1518 1515 1498 1487 1484 1483 1483 1483 1483 1484 1485 1486 1487 1488 1488 1489 1490 1490 1490 1490 1490 1490 1490 1490 1489 1489 1488 1488 1487 1487 1486 1486
1518 1516 1512 1511 1511 1512 1514 1519 1520 1528 1530 1529 1517 1509 1495 1484 1483 1483 1482 1482 1482 1483 1484 1485 1485 1486 1486 1487 1487 1487 1487 1488 1488 1488 1488 1487 1487 1486 1486 1485 1485 1484 1483 1482
1515 1517 1513 1512 1511 1512 1513 1518 1525 1527 1525 1522 1516 1510 1500 1487 1484 1483 1482 1482 1482 1483 1483 1484 1484 1484 1484 1485 1485 1484 1484 1485 1485 1485 1484 1484 1484 1483 1483 1482 1481 1481 1480 1479
1515 1519 1516 1514 1513 1513 1516 1518 1520 1526 1526 1526 1521 1504 1488 1485 1483 1483 1482 1481 1481 1481 1482 1482 1482 1482 1482 1482 1482 1482 1482 1482 1482 1481 1481 1481 1480 1480 1479 1478 1478 1477 1476 1475
1515 1521 1520 1515 1511 1511 1512 1513 1518 1521 1522 1528 1528 1506 1482 1482 1481 1481 1481 1480 1480 1480 1480 1480 1480 1480 1480 1480 1480 1480 1479 1479 1479 1478 1478 1477 1476 1476 1475 1474 1473 1473 1472 1471
1514 1518 1518 1512 1515 1514 1512 1512 1513 1516 1520 1526 1523 1501 1482 1480 1479 1479 1479 1478 1478 1478 1478 1478 1478 1477 1477 1477 1477 1476 1476 1476 1475 1474 1474 1473 1472 1471 1471 1470 1469 1468 1468 1467
1511 1515 1517 1510 1506 1508 1509 1509 1511 1514 1518 1517 1509 1494 1483 1480 1479 1478 1477 1476 1476 1475 1475 1475 1474 1474 1474 1474 1473 1473 1472 1472 1471 1471 1470 1469 1468 1467 1466 1466 1465 1464 1463 1463
1510 1514 1513 1510 1508 1507 1506 1504 1506 1506 1503 1503 1492 1490 1478 1477 1477 1475 1474 1474 1473 1472 1472 1472 1471 1471 1470 1470 1469 1469 1468 1468 1467 1466 1466 1465 1464 1463 1463 1462 1461 1460 1459 1458
1509 1511 1511 1508 1505 1506 1503 1497 1497 1496 1494 1492 1487 1480 1471 1472 1472 1471 1471 1470 1469 1469 1469 1468 1467 1467 1466 1466 1465 1465 1464 1464 1463 1462 1461 1461 1460 1459 1458 1457 1456 1455 1454 1454
1508 1509 1509 1508 1505 1502 1496 1483 1483 1484 1481 1482 1481 1472 1468 1470 1469 1467 1466 1466 1465 1465 1465 1464 1464 1463 1462 1462 1461 1460 1460 1459 1458 1457 1456 1456 1455 1454 1454 1453 1451 1450 1449 1449
1505 1507 1508 1507 1506 1502 1477 1472 1473 1475 1472 1473 1470 1467 1466 1465 1464 1463 1463 1462 1461 1461 1461 1461 1460 1459 1459 1458 1457 1456 1455 1454 1453 1452 1452 1451 1450 1449 1448 1447 1446 1445 1444 1443
1497 1501 1504 1505 1503 1490 1476 1471 1471 1473 1469 1465 1466 1464 1463 1463 1462 1459 1459 1459 1458 1458 1458 1457 1456 1455 1454 1453 1452 1451 1450 1450 1448 1447 1446 1446 1445 1444 1443 1442 1441 1440 1439 1438
1495 1497 1501 1500 1497 1488 1471 1467 1466 1469 1468 1461 1461 1461 1460 1461 1463 1459 1456 1456 1455 1454 1454 1453 1451 1450 1449 1449 1448 1446 1445 1444 1443 1442 1441 1440 1439 1438 1437 1436 1435 1434 1433 1432
1495 1496 1496 1494 1490 1478 1467 1465 1466 1472 1463 1459 1457 1457 1457 1458 1458 1456 1454 1453 1452 1451 1450 1449 1447 1446 1445 1444 1443 1441 1440 1439 1438 1437 1436 1435 1434 1432 1431 1430 1429 1428 1427 1426
1486 1489 1489 1487 1486 1475 1461 1463 1464 1460 1457 1456 1455 1455 1455 1454 1453 1452 1450 1449 1448 1446 1445 1444 1442 1441 1440 1439 1437 1436 1435 1434 1433 1432 1430 1429 1428 1427 1426 1424 1423 1422 1421 1420
1477 1473 1472 1472 1465 1458 1456 1456 1455 1455 1454 1453 1453 1452 1452 1451 1449 1448 1446 1445 1443 1442 1440 1439 1437 1436 1434 1433 1432 1430 1429 1428 1427 1426 1424 1424 1422 1421 1420 1419 1417 1416 1415 1414
1469 1466 1467 1465 1458 1454 1453 1452 1452 1452 1451 1450 1450 1449 1448 1446 1445 1443 1442 1440 1438 1437 1435 1434 1432 1430 1429 1428 1426 1425 1424 1422 1421 1419 1418 1417 1416 1415 1414 1413 1411 1410 1409 1408
1461 1463 1462 1459 1453 1450 1448 1448 1447 1447 1446 1445 1445 1444 1443 1441 1440 1438 1437 1435 1433 1432 1430 1428 1427 1425 1423 1422 1420 1419 1418 1417 1415 1413 1412 1411 1410 1409 1407 1406 1405 1404 1403 1402
1453 1455 1455 1450 1447 1447 1444 1443 1443 1442 1441 1440 1439 1438 1437 1436 1434 1433 1431 1430 1428 1426 1424 1423 1421 1419 1417 1416 1414 1413 1412 1411 1409 1407 1406 1405 1404 1403 1401 1400 1399 1397 1397 1396